When you browse on this site, cookies collect data to enhance your experience and personalize the content and advertising you see.
Visit our Privacy Policy to learn more. By continuing to use the site, you agree to this use of cookies and data.
  • în România
  • Lista ţărilor
  • Pe 7 zile
  • Temperatura apei
  • Hartă satelitară
  • Meteo pe hartă
  • Widget-uri
  • user-avatar
    Intrare

    Meteo pe oră la Mokrzeszow

    Astăzi, 26 Iunie, Miercuri

    Timp Temperatura Precipitaţii Vânt Presiune Umiditate
    00:00 +22°C° 0 mm 3 m/s 741 mmHg 86%
    01:00 +21°C° 0 mm 2 m/s 742 mmHg 87%
    02:00 +21°C° 0 mm 2 m/s 741 mmHg 87%
    03:00 +21°C° 0 mm 2 m/s 741 mmHg 88%
    04:00 +20°C° 0 mm 2 m/s 741 mmHg 89%
    05:00 +22°C° 0 mm 3 m/s 741 mmHg 83%
    06:00 +25°C° 0 mm 3 m/s 741 mmHg 78%
    07:00 +27°C° 0 mm 3 m/s 741 mmHg 73%
    08:00 +28°C° 0 mm 4 m/s 741 mmHg 69%
    09:00 +29°C° 0 mm 4 m/s 741 mmHg 65%
    10:00 +32°C° 0 mm 4 m/s 741 mmHg 61%
    11:00 +32°C° 0 mm 4 m/s 741 mmHg 59%
    12:00 +33°C° 0 mm 4 m/s 741 mmHg 56%
    13:00 +34°C° 0 mm 4 m/s 741 mmHg 54%
    14:00 +34°C° 0 mm 4 m/s 740 mmHg 55%
    15:00 +34°C° 0 mm 4 m/s 740 mmHg 56%
    16:00 +34°C° 0 mm 4 m/s 739 mmHg 56%
    17:00 +33°C° 0 mm 4 m/s 739 mmHg 61%
    18:00 +30°C° 0 mm 4 m/s 739 mmHg 66%
    19:00 +29°C° 0 mm 4 m/s 739 mmHg 71%
    20:00 +28°C° 0.1 mm 3 m/s 739 mmHg 73%
    21:00 +27°C° 0.1 mm 3 m/s 739 mmHg 74%
    22:00 +26°C° 0.1 mm 3 m/s 739 mmHg 76%
    23:00 +25°C° 0.1 mm 3 m/s 739 mmHg 79%

    Mâine, 27 Iunie, Joi

    Timp Temperatura Precipitaţii Vânt Presiune Umiditate
    00:00 +24°C° 0.1 mm 3 m/s 739 mmHg 82%
    01:00 +22°C° 0.1 mm 3 m/s 739 mmHg 86%
    02:00 +21°C° 0 mm 4 m/s 739 mmHg 87%
    03:00 +21°C° 0 mm 4 m/s 739 mmHg 89%
    04:00 +20°C° 0 mm 4 m/s 739 mmHg 91%
    05:00 +20°C° 0 mm 5 m/s 739 mmHg 87%
    06:00 +19°C° 0 mm 5 m/s 740 mmHg 83%
    07:00 +19°C° 0 mm 6 m/s 740 mmHg 79%
    08:00 +19°C° 0 mm 6 m/s 740 mmHg 72%
    09:00 +20°C° 0 mm 6 m/s 740 mmHg 65%
    10:00 +20°C° 0 mm 6 m/s 740 mmHg 58%
    11:00 +21°C° 0 mm 6 m/s 740 mmHg 54%
    12:00 +22°C° 0 mm 7 m/s 740 mmHg 50%
    13:00 +23°C° 0 mm 7 m/s 740 mmHg 46%
    14:00 +23°C° 0 mm 6 m/s 740 mmHg 47%
    15:00 +23°C° 0 mm 6 m/s 740 mmHg 49%
    16:00 +23°C° 0 mm 6 m/s 739 mmHg 50%
    17:00 +22°C° 0 mm 5 m/s 739 mmHg 56%
    18:00 +21°C° 0 mm 4 m/s 739 mmHg 61%
    19:00 +20°C° 0 mm 3 m/s 739 mmHg 67%
    20:00 +18°C° 0 mm 3 m/s 739 mmHg 71%
    21:00 +17°C° 0 mm 2 m/s 740 mmHg 75%
    22:00 +16°C° 0 mm 2 m/s 740 mmHg 80%
    23:00 +15°C° 0 mm 2 m/s 740 mmHg 82%

    Poimâine, 28 Iunie, Vineri

    Timp Temperatura Precipitaţii Vânt Presiune Umiditate
    00:00 +15°C° 0 mm 2 m/s 740 mmHg 84%
    01:00 +15°C° 0 mm 2 m/s 740 mmHg 85%
    02:00 +15°C° 0.1 mm 2 m/s 740 mmHg 89%
    03:00 +14°C° 0.1 mm 2 m/s 740 mmHg 92%
    04:00 +13°C° 0.1 mm 3 m/s 740 mmHg 95%
    05:00 +14°C° 0.1 mm 3 m/s 740 mmHg 93%
    06:00 +14°C° 0.1 mm 3 m/s 740 mmHg 91%
    07:00 +16°C° 0.1 mm 3 m/s 740 mmHg 89%
    08:00 +17°C° 0.1 mm 4 m/s 740 mmHg 86%
    09:00 +18°C° 0.1 mm 4 m/s 740 mmHg 82%
    10:00 +19°C° 0.1 mm 4 m/s 740 mmHg 79%
    11:00 +20°C° 0.2 mm 5 m/s 740 mmHg 74%
    12:00 +21°C° 0.2 mm 5 m/s 740 mmHg 70%
    13:00 +22°C° 0.2 mm 5 m/s 740 mmHg 65%
    14:00 +22°C° 0.2 mm 5 m/s 740 mmHg 65%
    15:00 +22°C° 0.2 mm 5 m/s 740 mmHg 65%
    16:00 +22°C° 0.2 mm 5 m/s 740 mmHg 64%
    17:00 +21°C° 0 mm 4 m/s 740 mmHg 67%
    18:00 +21°C° 0 mm 3 m/s 740 mmHg 69%
    19:00 +20°C° 0 mm 2 m/s 740 mmHg 72%
    20:00 +18°C° 0 mm 2 m/s 740 mmHg 72%
    21:00 +16°C° 0 mm 2 m/s 741 mmHg 72%
    22:00 +14°C° 0 mm 1 m/s 741 mmHg 72%
    23:00 +13°C° 0 mm 1 m/s 741 mmHg 71%

    29 Iunie, Sâmbătă

    Timp Temperatura Precipitaţii Vânt Presiune Umiditate
    00:00 +13°C° 0 mm 1 m/s 741 mmHg 70%
    01:00 +11°C° 0 mm 0 m/s 741 mmHg 69%
    02:00 +12°C° 0 mm 1 m/s 741 mmHg 68%
    03:00 +12°C° 0 mm 1 m/s 741 mmHg 68%
    04:00 +12°C° 0 mm 1 m/s 741 mmHg 67%
    05:00 +14°C° 0 mm 1 m/s 741 mmHg 63%
    06:00 +16°C° 0 mm 1 m/s 741 mmHg 59%
    07:00 +19°C° 0 mm 1 m/s 741 mmHg 55%
    08:00 +21°C° 0 mm 1 m/s 741 mmHg 51%
    09:00 +20°C° 0 mm 0 m/s 742 mmHg 48%
    10:00 +22°C° 0 mm 0 m/s 742 mmHg 44%
    11:00 +23°C° 0 mm 0 m/s 741 mmHg 44%
    12:00 +25°C° 0 mm 1 m/s 741 mmHg 43%
    13:00 +26°C° 0 mm 1 m/s 741 mmHg 42%
    14:00 +26°C° 0 mm 1 m/s 740 mmHg 43%
    15:00 +26°C° 0 mm 1 m/s 740 mmHg 44%
    16:00 +24°C° 0 mm 0 m/s 740 mmHg 45%
    17:00 +24°C° 0 mm 1 m/s 740 mmHg 51%
    18:00 +23°C° 0 mm 1 m/s 739 mmHg 58%
    19:00 +22°C° 0 mm 1 m/s 739 mmHg 65%
    20:00 +21°C° 0 mm 1 m/s 739 mmHg 67%
    21:00 +18°C° 0 mm 2 m/s 739 mmHg 68%
    22:00 +17°C° 0 mm 2 m/s 739 mmHg 70%
    23:00 +17°C° 0 mm 2 m/s 739 mmHg 70%

    30 Iunie, Duminică

    Timp Temperatura Precipitaţii Vânt Presiune Umiditate
    00:00 +16°C° 0 mm 2 m/s 739 mmHg 70%
    01:00 +16°C° 0 mm 2 m/s 739 mmHg 71%
    02:00 +16°C° 0 mm 3 m/s 738 mmHg 73%
    03:00 +16°C° 0 mm 3 m/s 738 mmHg 75%
    04:00 +16°C° 0 mm 3 m/s 738 mmHg 77%
    05:00 +17°C° 0 mm 3 m/s 738 mmHg 72%
    06:00 +19°C° 0 mm 4 m/s 738 mmHg 66%
    07:00 +21°C° 0 mm 4 m/s 738 mmHg 61%
    08:00 +22°C° 0 mm 4 m/s 738 mmHg 58%
    09:00 +25°C° 0 mm 5 m/s 738 mmHg 55%
    10:00 +26°C° 0 mm 5 m/s 738 mmHg 51%
    11:00 +27°C° 0 mm 6 m/s 737 mmHg 51%
    12:00 +28°C° 0 mm 6 m/s 737 mmHg 50%
    13:00 +29°C° 0 mm 6 m/s 736 mmHg 50%
    14:00 +29°C° 0 mm 6 m/s 736 mmHg 52%
    15:00 +29°C° 0 mm 6 m/s 736 mmHg 53%
    16:00 +29°C° 0 mm 6 m/s 736 mmHg 55%
    17:00 +28°C° 0 mm 5 m/s 735 mmHg 61%
    18:00 +27°C° 0 mm 5 m/s 735 mmHg 67%
    19:00 +25°C° 0 mm 4 m/s 735 mmHg 73%
    20:00 +25°C° 0 mm 4 m/s 735 mmHg 75%
    21:00 +23°C° 0 mm 4 m/s 735 mmHg 77%
    22:00 +22°C° 0 mm 4 m/s 735 mmHg 80%
    23:00 +21°C° 0 mm 4 m/s 735 mmHg 81%

    1 Iulie, Luni

    Timp Temperatura Precipitaţii Vânt Presiune Umiditate
    00:00 +21°C° 0 mm 4 m/s 735 mmHg 83%
    01:00 +20°C° 0 mm 3 m/s 735 mmHg 84%
    02:00 +19°C° 0 mm 3 m/s 735 mmHg 86%
    03:00 +19°C° 0 mm 2 m/s 735 mmHg 87%
    04:00 +19°C° 0 mm 2 m/s 735 mmHg 89%
    05:00 +20°C° 0.5 mm 2 m/s 735 mmHg 87%
    06:00 +21°C° 0.5 mm 2 m/s 735 mmHg 85%
    07:00 +23°C° 0.5 mm 2 m/s 735 mmHg 84%
    08:00 +24°C° 1.2 mm 2 m/s 735 mmHg 81%
    09:00 +25°C° 1.2 mm 2 m/s 735 mmHg 79%
    10:00 +26°C° 1.2 mm 2 m/s 735 mmHg 76%
    11:00 +27°C° 0.2 mm 3 m/s 735 mmHg 74%
    12:00 +27°C° 0.2 mm 3 m/s 735 mmHg 72%
    13:00 +28°C° 0.2 mm 4 m/s 735 mmHg 70%
    14:00 +28°C° 1.8 mm 4 m/s 734 mmHg 72%
    15:00 +27°C° 1.8 mm 4 m/s 734 mmHg 75%
    16:00 +26°C° 1.8 mm 4 m/s 734 mmHg 78%
    17:00 +25°C° 0.6 mm 3 m/s 734 mmHg 78%
    18:00 +24°C° 0.6 mm 3 m/s 734 mmHg 78%
    19:00 +23°C° 0.6 mm 2 m/s 733 mmHg 79%
    20:00 +21°C° 0.2 mm 2 m/s 734 mmHg 80%
    21:00 +20°C° 0.2 mm 2 m/s 734 mmHg 82%
    22:00 +19°C° 0.2 mm 2 m/s 734 mmHg 83%
    23:00 +18°C° 0.1 mm 2 m/s 735 mmHg 82%
    Arată mai mult